Regional Weather Roundup
Issued by NWS Sioux Falls, SD

Home | Current Version | Previous Version | Graphics & Text | Print | Product List | Glossary On
Versions: 1 2 3 4 5 6 7 8 9 10 11 12 13 14 15 16 17 18 19 20 21 22 23 24 25 26 27 28 29 30 31 32 33 34 35 36 37 38 39 40 41 42 43 44 45 46 47 48 49 50
000
ASUS43 KFSD 181410
RWRFSD

WEATHER ROUNDUP FOR SE SOUTH DAKOTA/SW MINNESOTA/NW IOWA
NATIONAL WEATHER SERVICE SIOUX FALLS SD
900 AM CDT FRI APR 18 2014

NOTE: "FAIR" INDICATES FEW OR NO CLOUDS BELOW 12,000 FEET WITH NO
SIGNIFICANT WEATHER AND OR OBSTRUCTIONS TO VISIBILITY.


SDZ038>040-050-052>070-181500-
SOUTHEAST SOUTH DAKOTA

CITY           SKY/WX    TMP DP  RH WIND       PRES   REMARKS
CHAMBERLAIN      N/A     44  31  60 SE18      30.00S
HURON          PTSUNNY   41  29  62 SE16G26   30.09F
MADISON        FAIR      34  34 100 SE21G26   30.17F WCI  22
MITCHELL       CLOUDY    41  30  65 SE20G28   30.12F
SIOUX FALLS    CLOUDY    38  31  76 SE13      30.21S
WINNER         FAIR      50  36  58 S31G40    29.91F
YANKTON        PTSUNNY   39  30  70 E9        30.19S
$$

MNZ071-072-080-081-089-090-097-098-181500-
SOUTHWEST MINNESOTA

CITY           SKY/WX    TMP DP  RH WIND       PRES   REMARKS
FAIRMONT       MOSUNNY   36  28  75 SE17      30.34S
JACKSON        MOSUNNY   36  32  87 SE13      30.30S HAZE
LUVERNE        CLOUDY    37  32  81 SE10G17   30.25F
MARSHALL       PTSUNNY   36  28  75 SE13      30.27S
MONTEVIDEO     MOSUNNY   34  28  80 SE13      30.30F WCI  25
PIPESTONE      CLOUDY    36  30  80 SE13G21   30.22S
REDWOOD FALLS  MOSUNNY   35  29  78 SE8       30.31R WCI  29
TRACY          PTSUNNY   37  32  84 SE10      30.28R
WINDOM         MOSUNNY   37  32  81 SE12      30.29S
WORTHINGTON    PTSUNNY   36  27  69 SE16      30.28F
$$

IAZ001>003-012>014-020>022-031-032-NEZ013-014-SDZ071-181500-
NORTHWEST IOWA

CITY           SKY/WX    TMP DP  RH WIND       PRES   REMARKS
CHEROKEE       MOSUNNY   38  33  83 SE12G18   30.29S
DENISON        SUNNY     41  34  75 SE10      30.28F
ESTHERVILLE    SUNNY     35  33  92 SE15      30.30F FOG     WCI  25
LE MARS        PTSUNNY   39  32  75 SE15      30.25F
ORANGE CITY    PTSUNNY   39  32  75 SE10G16   30.25S
SHELDON        PTSUNNY   37  32  81 SE17      30.26R
SIOUX CITY     MOSUNNY   40  32  73 SE13      30.25F
SPENCER        MOSUNNY   38  32  79 SE15      30.29F
STORM LAKE     MOSUNNY   37  34  87 SE15G21   30.30S
$$

ABBREVIATIONS USED IN REMARKS
   TC - TEMPERATURE IN CELSIUS
  WCI - WIND CHILL INDEX
   HX - HEAT INDEX
  VSB - VISIBILITY




USA.gov is the U.S. government's official web portal to all federal, state and local government web resources and services.